Location: *
(46.8500°N, 7.5833°E)
Time: 13:37:52
(UTC+00:00)

Daily predictions for brighter satellites

Satellite Brightness Start Highest point End
(mag) Time Altitude Azimuth Time Altitude Azimuth Time Altitude Azimuth
Meteor 1-25 Rocket 4.5 18:51:33 10° S 18:57:03 53° E 19:02:40 10° NNE
Cosmos 1933 Rocket 4.4 18:54:31 10° SSW 18:58:46 57° WNW 19:03:04 10° N
Cosmos 1703 Rocket 3.7 18:54:40 10° N 18:59:10 87° W 19:03:35 10° S
Unknown 3.7 18:55:04 10° WNW 18:59:13 85° SSW 19:03:22 10° ESE
Unknown 4.0 18:55:38 10° WNW 18:59:23 54° SW 19:03:06 10° SE
Unknown 3.7 18:56:35 10° WNW 19:00:44 85° SW 19:04:53 10° ESE
Cosmos 1777 Rocket 4.2 18:56:28 10° S 19:01:31 49° ESE 19:06:37 10° NNE
Unknown 3.7 18:57:46 10° WNW 19:01:57 86° SSW 19:06:07 10° ESE
Unknown 3.7 18:58:18 10° WNW 19:02:28 83° SSW 19:06:37 10° SE
Unknown 3.7 19:03:16 10° WNW 19:07:25 78° SSW 19:11:34 10° SE
Resurs 01 Rocket 2.4 19:03:59 10° SE 19:07:58 35° ENE 19:11:58 10° N
Unknown 3.7 19:04:54 10° WNW 19:09:03 76° SW 19:13:12 10° SE
H-2A R/B 2.1 19:04:39 10° SSE 19:09:36 58° ENE 19:14:27 10° N
Unknown 3.7 19:06:36 10° WNW 19:10:45 74° SSW 19:14:52 10° SE
Unknown 3.7 19:07:15 10° WNW 19:11:21 73° SSW 19:15:26 10° SE
Okean 1 3.6 19:07:32 10° N 19:11:25 49° ENE 19:15:16 10° SSE
Unknown 3.8 19:08:16 10° WNW 19:12:25 72° SW 19:16:32 10° SE
Unknown 3.8 19:11:36 10° WNW 19:15:44 69° SW 19:19:49 10° SE
Unknown 3.8 19:13:15 10° WNW 19:17:23 67° SW 19:21:26 10° SE
Cosmos 1538 Rocket 4.0 19:12:33 10° NNW 19:17:45 87° ENE 19:22:55 10° SSE
Unknown 3.9 19:14:54 10° WNW 19:19:01 65° SW 19:22:59 11° SE
Unknown 3.9 19:16:31 10° WNW 19:20:38 65° SW 19:24:32 11° SE
Cosmos 1680 Rocket 4.3 19:16:41 10° N 19:21:32 36° ENE 19:25:59 12° ESE
Unknown 3.9 19:18:17 10° WNW 19:22:23 62° SW 19:26:14 11° SE
Cosmos 44 Rocket 4.1 19:18:01 10° NNW 19:22:29 36° NE 19:26:32 12° ESE
Unknown 3.9 19:19:43 10° WNW 19:23:50 65° SW 19:27:36 12° SE
Meteor 1-20 Rocket 4.3 19:18:36 10° S 19:24:25 86° E 19:30:11 10° NNE
ADEOS Rocket 3.3 19:20:56 10° NNE 19:26:41 49° E 19:33:00 10° S
Unknown 3.9 19:23:05 10° WNW 19:27:11 61° SW 19:30:50 13° SE
USA 186 3.0 19:25:18 10° SSW 19:27:32 31° W 19:29:55 10° NNW
Unknown 3.9 19:24:44 10° WNW 19:28:50 60° SW 19:32:25 13° SE
Cosmos 1869 Rocket 3.8 19:25:51 10° SSW 19:30:09 74° W 19:34:31 10° N
Unknown 4.1 19:26:39 10° WNW 19:30:42 54° SW 19:34:14 13° SE
Unknown 4.0 19:28:02 10° WNW 19:32:06 57° SW 19:35:34 14° SE
Cosmos 1244 Rocket 4.5 19:27:12 10° N 19:33:28 81° E 19:39:37 10° S
CZ-2C R/B 3.9 19:29:49 10° NE 19:33:46 21° E 19:36:47 14° SE
Unknown 4.1 19:29:44 10° WNW 19:33:48 55° SW 19:37:12 14° SE
COSMOS 2406 4.0 19:30:30 10° SSE 19:35:18 29° ESE 19:40:09 10° NE
Cosmos 1733 Rocket 3.5 19:32:21 10° SSE 19:36:22 40° E 19:40:25 10° NNE
Unknown 4.1 19:33:03 10° WNW 19:37:06 52° SW 19:40:23 15° SE
Cosmos 1553 Rocket 4.2 19:31:16 10° SSE 19:37:19 54° E 19:43:29 10° NNE
Cosmos 1980 Rocket 4.2 19:34:57 10° N 19:38:10 15° NE 19:41:23 10° ENE
Unknown 4.2 19:34:43 10° WNW 19:38:44 51° SW 19:41:57 15° SE
MetOp-A 4.2 19:33:34 10° SSE 19:38:53 69° ENE 19:44:13 10° N
Cosmos 1674 Rocket 4.2 19:35:52 10° N 19:39:57 37° ENE 19:42:54 16° SE
SJ-6B 4.2 19:36:15 10° S 19:39:59 40° W 19:43:49 10° NNW
Unknown 4.2 19:36:24 10° WNW 19:40:25 49° SW 19:43:35 15° SSE
Aureole 2 Rocket 2.0 19:38:00 10° NNW 19:40:39 51° ENE 19:42:05 22° SE
ERS-1 Rocket 4.4 19:38:32 13° ESE 19:41:32 22° ENE 19:45:22 10° NNE
Unknown 4.2 19:38:05 10° WNW 19:42:05 48° SW 19:45:11 16° SSE
Unknown 4.3 19:39:44 10° WNW 19:43:43 46° SW 19:46:46 16° SSE
USA 267 4.1 19:37:26 10° NE 19:43:45 53° NNW 19:50:04 10° W
Cosmos 1602 3.6 19:40:46 10° S 19:44:36 88° E 19:48:26 10° N
Cosmos 1417 Rocket 4.5 19:42:42 10° S 19:48:46 65° E 19:54:49 10° NNE
Cosmos 1536 4.2 19:48:20 19° ESE 19:49:35 22° E 19:52:46 10° NE
ARGOS 3.6 19:49:18 10° S 19:54:36 63° WSW 19:59:56 10° NNW
DMSP B5D2-2 4.2 19:50:44 10° NNE 19:55:53 54° E 20:01:02 10° S
SL-08 RB Rocket 3.9 19:53:25 10° S 19:57:55 72° WSW 20:02:32 10° NNW
Shenzhou-11 Module 3.4 19:56:13 10° SW 19:57:54 20° S 19:57:54 20° S
TSX-5 3.8 19:55:52 10° NNW 19:59:13 56° ENE 20:01:12 26° SE
S3M 4.0 19:55:21 10° S 20:01:35 65° E 20:07:45 10° NNE
Meteor 2-4 Rocket 3.5 19:57:46 10° N 20:03:11 77° ENE 20:07:26 16° SSE
Spot 2 Rocket 3.5 19:59:19 17° SSE 20:03:17 73° ENE 20:08:23 10° N
Cosmos 1937 Rocket 4.5 20:02:12 22° SE 20:04:04 27° E 20:08:28 10° NE
Abrixas rocket 1.9 20:01:06 10° WSW 20:04:11 76° SSE 20:05:46 26° E
SPOT 1/Viking Rocket 4.4 20:01:43 21° ESE 20:04:27 35° ENE 20:09:10 10° N
GP-B 3.5 20:00:23 10° NNE 20:04:39 43° E 20:06:53 24° SE
Cosmos 1500 3.7 20:05:21 27° SE 20:06:51 39° E 20:10:28 10° NNE
ASTEX 1 3.4 20:04:49 10° N 20:09:46 66° E 20:13:49 15° S
Cosmos 1745 Rocket 3.9 20:10:13 10° N 20:16:24 89° ENE 20:21:28 16° S
CZ-2C R/B 3.2 20:14:41 14° S 20:18:47 62° W 20:23:33 10° NNW
USA 234 4.4 20:13:51 12° S 20:19:15 33° SW 20:25:04 10° WNW
Cosmos 2112 Rocket 4.0 20:19:44 10° NNW 20:25:01 85° WSW 20:27:56 27° SSE
Meteor 1-11 Rocket 3.8 20:21:41 12° S 20:27:14 73° E 20:33:11 10° NNE
Cosmos 1340 4.3 20:30:15 20° ENE 20:30:15 20° ENE 20:32:16 10° NE
SL-08 ROCKET BODY 4.3 20:26:38 10° N 20:32:35 82° E 20:36:00 26° SSE
Cosmos 1908 Rocket 3.5 20:32:26 33° SSE 20:34:21 67° E 20:38:48 10° NNE
EO 1 Del DPAF 3.6 20:30:53 10° NNE 20:34:26 43° E 20:34:26 43° E
Terra 2.7 20:34:26 29° E 20:35:35 33° ENE 20:39:50 10° N
Cosmos 1241 Rocket 4.4 20:35:53 10° SSW 20:42:26 80° ESE 20:48:56 10° NE
Resurs 01 Rocket 3.5 20:40:48 10° SSW 20:44:30 26° W 20:48:14 10° NW
SJ 16-02 1.4 20:45:02 51° SE 20:45:41 57° ESE 20:50:03 10° NNE
Sich 1 Rocket 4.0 20:46:31 43° E 20:46:44 43° E 20:51:00 10° NNE
Cosmos 2082 Rocket 2.8 20:46:53 33° ESE 20:46:53 33° ESE 20:51:51 10° NE
IGS 5A 3.4 20:46:43 55° SE 20:47:27 69° ENE 20:51:36 10° N
Cosmos 2278 4.0 20:43:02 10° NNW 20:48:36 54° ENE 20:50:29 38° ESE
Cosmos 1833 Rocket 2.9 20:47:16 38° SSE 20:48:48 48° ESE 20:54:13 10° NE
H-2A R/B 4.3 20:45:47 10° SW 20:49:23 19° W 20:52:57 10° NW
SPOT 5 2.6 20:50:44 53° ESE 20:51:25 62° ENE 20:55:43 10° N
Aureole 3 Rocket 3.3 20:50:43 24° SW 20:52:38 50° W 20:55:47 10° N
Thor Agena Rocket 3.7 20:48:40 10° NNE 20:53:44 53° E 20:54:46 46° SE
Cosmos 1656 3.7 20:48:08 10° NNW 20:53:51 78° WSW 20:55:58 40° SSE
Meteor 2-16 Rocket 4.4 20:49:11 10° N 20:55:22 87° E 20:58:03 36° S
SL-16 R/B 4.1 20:52:50 10° N 20:56:46 19° NE 20:59:25 14° ENE
Cosmos 1898 Rocket 3.5 20:52:06 13° SSW 20:56:54 84° WNW 21:02:10 10° NNE
Cosmos 1066 Rocket 4.0 20:54:22 10° N 20:59:50 73° ENE 21:01:16 49° SSE
Cosmos 1697 Rocket 2.7 20:55:10 10° NNW 21:00:52 76° ENE 21:02:30 48° SE
EXPRESS MD2 3.9 20:58:42 10° WNW 21:01:15 34° W 21:01:15 34° W
SL-24 R/B 4.2 20:59:35 10° NNE 21:02:50 48° ENE 21:02:50 48° ENE
Cosmos 44 Rocket 4.2 20:59:38 10° NW 21:04:02 37° WSW 21:05:15 31° SSW
Cosmos 1666 2.8 21:05:46 66° NE 21:05:46 66° NE 21:09:13 10° NNE
BREEZE M DEB (TANK) 3.9 21:07:36 30° ENE 21:07:36 30° ENE 21:11:34 10° ENE
USA 229 DEB 4.0 21:02:19 10° NW 21:09:30 66° NE 21:12:34 37° ESE
USA 229 4.0 21:02:25 10° NW 21:09:35 65° NE 21:12:40 37° ESE
Cosmos 1782 Rocket 3.5 21:12:17 67° SSW 21:12:52 86° W 21:17:20 10° N
CZ-2C R/B 3.1 21:09:16 10° N 21:14:26 59° WNW 21:18:17 18° SW
Cosmos 2360 Rocket 4.5 21:14:06 10° N 21:16:50 14° NE 21:19:34 10° ENE
COSMOS 2406 4.1 21:13:51 10° SW 21:19:21 49° WNW 21:24:55 10° NNE
ERS-1 Rocket 3.4 21:18:32 41° SSW 21:19:57 55° W 21:24:55 10° NNW
Cosmos 2098 Rocket 4.4 21:17:32 10° NNW 21:21:43 41° W 21:23:49 28° SW
Cosmos 1980 Rocket 2.2 21:17:43 10° NNW 21:23:19 65° ENE 21:24:16 55° ESE
Cosmos 1536 4.4 21:24:02 23° WSW 21:25:50 33° WNW 21:29:33 10° N
Cosmos 1346 Rocket 3.1 21:26:49 62° NW 21:26:49 62° NW 21:30:17 10° N
FALCON 9 R/B 4.2 21:08:05 10° SW 21:27:03 35° S 21:27:58 35° S
Cosmos 2154 Rocket 4.3 21:28:07 10° N 21:34:11 49° ENE 21:35:00 46° E
Cosmos 2369 4.0 21:30:18 10° NW 21:35:49 54° WSW 21:36:50 47° SSW
Cosmos 1975 Rocket 3.7 21:33:36 10° NNW 21:37:51 47° W 21:38:10 46° WSW
Nadezhda 1 Rocket 4.1 21:41:24 54° ESE 21:41:45 55° E 21:47:43 10° NNE
Cosmos 1937 Rocket 4.4 21:42:17 19° SW 21:45:47 46° WNW 21:50:56 10° NNE
Cosmos 2074 Rocket 4.0 21:44:10 10° N 21:50:29 81° W 21:51:37 62° S
Okean 2 4.2 21:47:42 10° NNW 21:51:03 49° NW 21:51:03 49° NW
Cosmos 2184 Rocket 3.9 21:48:50 10° N 21:55:01 78° W 21:55:58 64° SSW
Cosmos 2150 Rocket 4.0 21:59:39 72° W 21:59:52 73° WNW 22:05:06 10° NNE
Cosmos 1300 Rocket 4.3 22:04:06 51° N 22:04:06 51° N 22:07:25 10° N
Cosmos 372 Rocket 4.0 22:03:13 80° NW 22:03:13 80° NW 22:08:19 10° NNE
Cosmos 2298 Rocket 4.3 22:02:35 56° WSW 22:03:23 63° WNW 22:08:42 10° NNE
Meteor 2-15 4.2 22:03:15 76° S 22:03:47 88° E 22:09:57 10° N
NOSS 3-1 (C) 4.0 21:56:19 10° NW 22:03:51 80° SW 22:05:46 57° SSE
Lacrosse 4 Rocket 4.2 22:06:55 10° NNE 22:07:33 10° NNE 22:08:10 10° NE
MOS 1 Rocket 4.5 22:04:38 10° N 22:09:44 46° WNW 22:11:12 37° WSW
Cosmos 2322 Rocket 2.8 22:06:03 10° NNW 22:11:29 46° NE 22:11:46 45° ENE
Terra 3.1 22:13:19 32° W 22:13:19 32° W 22:17:35 10° NNW
Cosmos 2341 Rocket 4.2 22:07:32 10° N 22:13:51 59° ENE 22:14:08 58° E
Helios 1A 4.1 22:16:09 42° N 22:16:09 42° N 22:19:00 10° N
Okean 2 Rocket 4.2 22:16:42 39° WNW 22:16:42 39° WNW 22:20:33 10° N
SJ 16-02 3.9 22:21:58 12° W 22:24:40 18° NW 22:27:47 10° N
Mayak 0.1 22:22:23 10° N 22:25:01 38° N 22:25:01 38° N
Cosmos 1295 Rocket 4.4 22:23:52 10° N 22:30:15 90° NE 22:30:26 86° S
Cosmos 2082 Rocket 3.2 22:28:40 31° WSW 22:30:47 43° NW 22:36:12 10° NNE
CZ-4C R/B 3.3 22:33:51 34° ENE 22:33:51 34° ENE 22:37:27 10° NE
Cosmos 1833 Rocket 4.2 22:28:53 14° WSW 22:32:56 32° NW 22:37:59 10° NNE
Meteor 1-12 Rocket 4.3 22:36:55 78° WNW 22:36:55 78° WNW 22:42:48 10° N
Meteor 2-9 Rocket 4.4 22:37:24 65° W 22:37:34 66° WNW 22:43:27 10° N
ALOS 2 3.8 22:42:34 40° N 22:42:34 40° N 22:45:29 10° N
SL-16 R/B 2.3 22:36:04 10° NNW 22:41:15 74° N 22:41:15 74° N
Cosmos 2181 Rocket 4.1 22:43:43 62° ENE 22:43:43 62° ENE 22:49:20 10° NNE
Cosmos 1867 4.0 22:39:26 10° NW 22:43:55 58° WNW 22:43:55 58° WNW
SL-8 Rocket 4.0 22:43:49 10° N 22:50:03 76° ENE 22:50:03 76° ENE
Cosmos 1125 Rocket 4.3 23:01:59 44° WNW 23:01:59 44° WNW 23:06:59 10° NNE
Cosmos 2360 Rocket 2.6 22:56:37 10° NNW 23:01:51 55° NE 23:01:51 55° NE
NOSS 3-1 (A) 4.2 22:56:31 10° NW 23:03:56 56° WSW 23:04:17 55° SW
Cosmos 1980 Rocket 4.0 23:02:40 10° NW 23:06:01 21° W 23:06:01 21° W
USA 267 4.2 23:02:04 10° E 23:08:13 45° NNE 23:14:22 10° NW
Cosmos 2219 Rocket 3.8 23:04:45 10° N 23:09:24 26° NE 23:10:57 23° ENE
Cosmos 1959 Rocket 4.5 23:13:03 10° N 23:18:47 75° NW 23:18:47 75° NW
Cosmos 2218 Rocket 4.0 23:13:40 10° N 23:19:48 77° WNW 23:19:48 77° WNW
Meteor 1-15 Rocket 4.5 23:24:09 65° NNW 23:24:09 65° NNW 23:29:00 10° N
COSMOS 2455 4.0 23:22:50 10° NNW 23:28:25 37° NE 23:30:13 31° E
Cosmos 2322 4.2 23:23:18 10° NNW 23:28:44 56° NE 23:28:44 56° NE
Aureole 1 Rocket 4.2 23:23:45 10° NNW 23:31:55 77° ENE 23:32:30 72° ESE
Cosmos 2251 Rocket 4.1 23:33:25 10° NNW 23:37:31 54° NNW 23:37:31 54° NNW
Nadezhda 3 Rocket 4.3 23:39:44 55° ENE 23:39:44 55° ENE 23:45:22 10° NNE
Helios 1B rocket 4.4 23:42:05 10° N 23:44:20 25° NNW 23:44:20 25° NNW
Lacrosse 4 Rocket 3.4 23:43:11 10° NNW 23:45:17 27° N 23:45:17 27° N
Cosmos 2333 Rocket 2.9 23:45:09 10° NNW 23:50:38 47° NE 23:50:58 47° ENE
